Flag for Canada Weather past 2 weeks in Saint-Jérôme, Quebec, Canada

Now
34 °F

Partly sunny.


Feels Like: 26 °F
Forecast: N/A
Wind: 10 mph from West

Location: Montreal / Mirabel

Current Time: Dec 28, 2014 at 5:11:34 PM

Latest Report: Dec 28, 2014 at 4:00 PM


Visibility: 45 mi

Pressure: 29.88 "Hg

Humidity: 56%

Dew point: 19 °F

Location of Saint-JérômeLocation

Historic Weather in Saint-Jérôme — Graph

°F

Saint-Jérôme temperature yesterday

Maximum temperature yesterday: 37 °F (at 1:00 PM)
Minimum temperature yesterday: 34 °F (at 2:00 AM)
Average temperature yesterday: 35 °F

Past Weeks' High & Low Weather Summary

 TemperatureHumidityPressure
High45 °F (Dec 28, 4:00 AM)100% (Dec 16, 7:00 AM)30.44 "Hg (Dec 16, 7:00 AM)
Low3 °F (Dec 20, 7:00 AM)56% (Dec 28, 2:00 PM)29.27 "Hg (Dec 25, 3:00 AM)
Average28 °F86%30.02 "Hg
* Reported Dec 13 4:00 PM — Dec 28 4:00 PM, Saint-Jérôme, Weather by CustomWeather, © 2014

Note: Actual official high and low records may vary slightly from our data, if they occured in-between our weather recording intervals... More about our weather records

Advertising

Saint-Jérôme weather history for previous 24 hours

 ConditionsComfort  
Time TempWeatherWind HumidityBarometerVisibility
4:00 PM
Dec 28
34 °FPartly sunny.10 mph56%29.88 "Hg45 mi
3:00 PM36 °FPartly sunny.8 mph56%29.86 "Hg45 mi
2:00 PM37 °FPartly sunny.12 mph56%29.83 "Hg45 mi
1:00 PM37 °FPartly sunny.12 mph60%29.80 "Hg45 mi
12:00 PM37 °FSprinkles. Broken clouds.14 mph65%29.78 "Hg45 mi
11:00 AM39 °FPartly sunny.16 mph65%29.77 "Hg45 mi
10:00 AM39 °FBroken clouds.12 mph81%29.78 "Hg45 mi
9:00 AM39 °FSprinkles. Partly sunny.15 mph81%29.76 "Hg45 mi
8:45 AM39 °FBroken clouds.12 mph75%29.75 "Hg45 mi
8:00 AM39 °FScattered clouds.13 mph81%29.72 "Hg45 mi
7:00 AM39 °FPassing clouds.12 mph81%29.69 "Hg25 mi
6:00 AM43 °FPassing clouds.13 mph81%29.67 "Hg20 mi
5:00 AM43 °FMostly cloudy.9 mph100%29.65 "Hg15 mi
4:00 AM45 °FSprinkles. Fog.13 mph93%29.64 "Hg10 mi
3:00 AM43 °FSprinkles. Fog.7 mph100%29.68 "Hg5 mi
2:00 AM37 °FSprinkles. Fog.6 mph100%29.70 "Hg3 mi
1:00 AM36 °FSprinkles. Fog.2 mph100%29.73 "Hg6 mi
12:00 AM36 °FOvercast.No wind100%29.76 "Hg8 mi
11:00 PM
Dec 27
36 °FOvercast.2 mph93%29.79 "Hg8 mi
10:00 PM34 °FSprinkles. Overcast.2 mph100%29.81 "Hg8 mi
9:00 PM36 °FSprinkles. Mostly cloudy.3 mph93%29.85 "Hg8 mi
8:00 PM34 °FSprinkles. Overcast.3 mph100%29.91 "Hg8 mi
7:00 PM36 °FOvercast.2 mph93%29.97 "Hg15 mi
6:00 PM36 °FOvercast.No wind93%30.01 "Hg10 mi
5:00 PM36 °FOvercast.5 mph93%30.02 "Hg8 mi
Weather by CustomWeather, © 2014

See weather overviewHow to use our weather pages